Find Starlink 31812

NORAD ID: 59800 Int'l Des: 2024-093 Owner: SPXS Country: US Constellation: starlink operational
LEOCIRCULAR

現在のビュー

3D地球を読み込み中...

About Starlink 31812

Starlink 31812 (NORAD 59800) is a starlink constellation satellite (v2 mini) launched May 18, 2024 by SPXS of US. It operates in LEO, CIRCULAR orbit with a mass of 730.00 kg.

Starlink 31812について

説明を読み込み中...

次回通過

Passes for default location (London). Set your location on the main map for personalized predictions.

高度履歴

Loading altitude history...

軌道要素

1 59800U 24093U 26175.72245170 -.00000057 00000-0 74654-5 0 9993
2 59800 43.0033 324.5220 0001670 273.5621 86.5040 15.27582012119136
Epoch: Jun 24, 2026 • Age: 24 hours

現在のステータス

高度 486.7 km
速度 7.63 km/s
衛星直下点 40.09°N, 99.17°W
打ち上げ日 May 18, 2024
運用期間 2.1 years
タイプ internet

技術仕様

分類 Payload
質量 730.00 kg
乾燥質量 700.00 kg
総質量 730.00 kg
長さ 0.30 m
直径 4.10 m
スパン 29.00 m
形状 Box + pan
製造者 SPXS
バスタイプ Starlink V2M
フェーズステータス In Orbit
所有者/国 SPXS/US

Most Searched